Location: Caltech
(34.1382°N, 118.1253°W)
Time: 04:36:06
(UTC-08:00)

BREEZE M DEB (TANK) - Visible Passes

Search period start: 24 February 2017 00:00
Search period end: 06 March 2017 00:00
Orbit: 318 x 13712 km, 49.6° (Epoch: 23 February)

Date Brightness Start Highest point End Pass type
(mag) Time Alt. Az. Time Alt. Az. Time Alt. Az.
24 Feb 9.4 02:25:25 10° WNW 04:04:35 - WSW 02:55:07 19° W visible
24 Feb 7.9 18:55:00 10° WNW 19:13:36 60° NNE 20:04:36 33° E visible
24 Feb 9.1 23:27:37 10° NW 00:16:22 58° WSW 02:03:50 10° S visible
25 Feb 8.5 20:43:04 10° NW 21:14:56 82° NE 23:18:05 10° SSE visible
26 Feb 9.3 01:23:07 10° WNW 03:14:34 15° SW 03:28:26 10° SW visible
26 Feb 7.6 18:00:50 10° WNW 18:15:17 54° NNE 19:16:05 21° E visible
26 Feb 9.0 22:32:05 10° NW 23:16:39 69° WSW 01:10:20 10° S visible
27 Feb 8.3 19:48:39 10° NW 20:14:21 73° NE 22:15:54 10° SE visible
28 Feb 9.2 00:24:26 10° WNW 01:12:09 39° WSW 02:45:28 10° SSW visible
28 Feb 7.2 17:06:44 10° WNW 17:17:53 51° N 18:25:45 10° E visible
28 Feb 8.8 21:37:00 10° NW 22:16:04 79° SW 00:14:39 10° SSE visible
01 Mar 9.5 02:37:35 10° WNW 02:59:07 12° W 03:03:06 12° W visible
01 Mar 8.0 18:54:20 10° NW 19:14:42 65° NNE 20:13:04 33° ESE visible
01 Mar 9.1 23:27:28 10° NW 00:14:20 49° WSW 01:57:03 10° SSW visible
02 Mar 8.6 20:42:13 10° NW 21:15:15 90° SW 23:16:40 10° SSE visible
03 Mar 9.4 01:26:31 10° WNW 02:04:48 21° W 02:15:53 21° WSW visible
03 Mar 7.7 18:00:02 10° WNW 18:16:02 58° NNE 19:26:12 21° ESE visible
03 Mar 9.1 22:31:25 10° NW 23:15:13 60° WSW 01:05:09 10° S visible
04 Mar 8.3 19:47:37 10° NW 20:14:45 80° NE 22:15:56 10° SE visible
05 Mar 9.3 00:25:25 10° WNW 01:08:58 31° W 02:32:06 10° SW visible
05 Mar 7.4 17:05:47 10° WNW 17:18:15 52° NNE 18:36:24 10° E visible
